Time,TemperatureF,DewpointF,PressureIn,WindDirection,WindDirectionDegrees,WindSpeedMPH,WindSpeedGustMPH,Humidity,HourlyPrecipIn,Conditions,Clouds,dailyrainin,SoftwareType,DateUTC
2013-04-15 06:12:00,49.1,39.4,30.07,SSE,157,1.7,-999.0,69,-99.99,,,0.00,Acu-Link.com,2013-04-15 10:12:00,
2013-04-15 06:27:00,48.9,39.6,30.07,South,180,0.0,-999.0,70,-99.99,,,0.00,Acu-Link.com,2013-04-15 10:27:00,
2013-04-15 06:42:00,48.7,39.7,30.08,NNW,337,1.7,-999.0,71,-99.99,,,0.00,Acu-Link.com,2013-04-15 10:42:00,
2013-04-15 06:57:00,48.7,40.1,30.09,ESE,112,4.2,-999.0,72,-99.99,,,0.00,Acu-Link.com,2013-04-15 10:57:00,
2013-04-15 07:13:00,48.7,40.4,30.08,SE,135,2.2,-999.0,73,-99.99,,,0.00,Acu-Link.com,2013-04-15 11:13:00,
2013-04-15 07:28:00,48.7,40.8,30.08,WSW,247,3.7,-999.0,74,-99.99,,,0.00,Acu-Link.com,2013-04-15 11:28:00,
2013-04-15 07:43:00,49.1,41.2,30.09,South,180,2.7,-999.0,74,-99.99,,,0.00,Acu-Link.com,2013-04-15 11:43:00,
2013-04-15 07:58:00,50.2,42.6,30.10,ESE,112,2.7,-999.0,75,-99.99,,,0.00,Acu-Link.com,2013-04-15 11:58:00,
2013-04-15 08:29:00,52.0,46.0,30.10,NE,45,2.7,-999.0,80,-99.99,,,0.00,Acu-Link.com,2013-04-15 12:29:00,
2013-04-15 08:44:00,52.2,45.9,30.10,South,180,2.7,-999.0,79,-99.99,,,0.00,Acu-Link.com,2013-04-15 12:44:00,
2013-04-15 08:59:00,52.3,45.6,30.10,NNE,22,4.2,-999.0,78,-99.99,,,0.00,Acu-Link.com,2013-04-15 12:59:00,
2013-04-15 09:14:00,52.7,46.0,30.10,SSE,157,6.8,-999.0,78,-99.99,,,0.00,Acu-Link.com,2013-04-15 13:14:00,
2013-04-15 09:29:00,53.4,46.4,30.08,West,270,6.8,-999.0,77,-99.99,,,0.00,Acu-Link.com,2013-04-15 13:29:00,
2013-04-15 09:45:00,54.5,46.4,30.09,East,90,5.8,-999.0,74,-99.99,,,0.00,Acu-Link.com,2013-04-15 13:45:00,
2013-04-15 10:00:00,56.5,46.8,30.09,WSW,247,4.7,-999.0,70,-99.99,,,0.00,Acu-Link.com,2013-04-15 14:00:00,
2013-04-15 10:15:00,55.6,46.7,30.09,ESE,112,3.2,-999.0,72,-99.99,,,0.00,Acu-Link.com,2013-04-15 14:15:00,
2013-04-15 10:30:00,55.0,46.5,30.10,SW,225,6.3,-999.0,73,-99.99,,,0.00,Acu-Link.com,2013-04-15 14:30:00,
2013-04-15 10:45:00,55.2,46.7,30.11,SSE,157,2.2,-999.0,73,-99.99,,,0.00,Acu-Link.com,2013-04-15 14:45:00,
2013-04-15 11:01:00,55.8,47.3,30.12,North,0,4.2,-999.0,73,-99.99,,,0.00,Acu-Link.com,2013-04-15 15:01:00,
2013-04-15 11:46:00,53.2,47.5,30.12,SSE,157,9.9,-999.0,81,-99.99,,,0.00,Acu-Link.com,2013-04-15 15:46:00,
2013-04-15 12:02:00,53.8,48.1,30.11,ESE,112,3.2,-999.0,81,-99.99,,,0.00,Acu-Link.com,2013-04-15 16:02:00,
2013-04-15 12:17:00,53.4,48.0,30.12,NE,45,8.9,-999.0,82,-99.99,,,0.00,Acu-Link.com,2013-04-15 16:17:00,
2013-04-15 12:47:00,53.6,47.6,30.12,ESE,112,2.7,-999.0,80,-99.99,,,0.00,Acu-Link.com,2013-04-15 16:47:00,
2013-04-15 13:02:00,53.8,47.8,30.12,ESE,112,4.2,-999.0,80,-99.99,,,0.00,Acu-Link.com,2013-04-15 17:02:00,
2013-04-15 13:18:00,54.5,47.4,30.12,SSE,157,5.8,-999.0,77,-99.99,,,0.00,Acu-Link.com,2013-04-15 17:18:00,
2013-04-15 13:33:00,55.2,47.8,30.11,ESE,112,4.7,-999.0,76,-99.99,,,0.00,Acu-Link.com,2013-04-15 17:33:00,
2013-04-15 13:48:00,54.3,48.3,30.12,SSW,202,9.4,-999.0,80,-99.99,,,0.00,Acu-Link.com,2013-04-15 17:48:00,
2013-04-15 14:03:00,54.0,48.6,30.12,NNE,22,4.2,-999.0,82,-99.99,,,0.00,Acu-Link.com,2013-04-15 18:03:00,
2013-04-15 14:18:00,53.1,49.3,30.13,South,180,5.8,-999.0,87,-99.99,,,0.00,Acu-Link.com,2013-04-15 18:18:00,
2013-04-15 14:34:00,53.1,49.9,30.12,ESE,112,6.3,-999.0,89,-99.99,,,0.00,Acu-Link.com,2013-04-15 18:34:00,
2013-04-15 14:49:00,53.8,49.4,30.12,SSW,202,4.2,-999.0,85,-99.99,,,0.00,Acu-Link.com,2013-04-15 18:49:00,
2013-04-15 15:04:00,55.8,49.0,30.12,SW,225,5.8,-999.0,78,-99.99,,,0.00,Acu-Link.com,2013-04-15 19:04:00,
2013-04-15 15:19:00,55.0,47.6,30.11,South,180,7.8,-999.0,76,-99.99,,,0.00,Acu-Link.com,2013-04-15 19:19:00,
2013-04-15 15:34:00,55.4,47.6,30.11,SSE,157,6.8,-999.0,75,-99.99,,,0.00,Acu-Link.com,2013-04-15 19:34:00,
2013-04-15 16:05:00,55.6,47.1,30.11,NNE,22,6.8,-999.0,73,-99.99,,,0.00,Acu-Link.com,2013-04-15 20:05:00,
2013-04-15 16:20:00,56.1,47.2,30.11,East,90,5.8,-999.0,72,-99.99,,,0.00,Acu-Link.com,2013-04-15 20:20:00,
2013-04-15 16:35:00,56.5,47.2,30.12,SSW,202,5.8,-999.0,71,-99.99,,,0.00,Acu-Link.com,2013-04-15 20:35:00,
2013-04-15 16:51:00,55.9,47.0,30.10,South,180,6.8,-999.0,72,-99.99,,,0.00,Acu-Link.com,2013-04-15 20:51:00,
2013-04-15 17:36:00,56.7,47.0,30.11,NE,45,7.3,-999.0,70,-99.99,,,0.00,Acu-Link.com,2013-04-15 21:36:00,
2013-04-15 18:07:00,56.8,47.1,30.11,SSE,157,8.9,-999.0,70,-99.99,,,0.00,Acu-Link.com,2013-04-15 22:07:00,
2013-04-15 18:22:00,56.8,46.7,30.11,NW,315,4.2,-999.0,69,-99.99,,,0.00,Acu-Link.com,2013-04-15 22:22:00,
2013-04-15 18:37:00,56.5,46.5,30.12,South,180,6.8,-999.0,69,-99.99,,,0.00,Acu-Link.com,2013-04-15 22:37:00,
2013-04-15 18:52:00,56.1,46.5,30.12,ESE,112,3.7,-999.0,70,-99.99,,,0.00,Acu-Link.com,2013-04-15 22:52:00,
2013-04-15 19:07:00,55.9,46.3,30.11,East,90,5.8,-999.0,70,-99.99,,,0.00,Acu-Link.com,2013-04-15 23:07:00,
2013-04-15 19:23:00,55.8,46.2,30.11,North,0,3.2,-999.0,70,-99.99,,,0.00,Acu-Link.com,2013-04-15 23:23:00,
2013-04-15 19:38:00,55.4,45.8,30.11,ESE,112,3.7,-999.0,70,-99.99,,,0.00,Acu-Link.com,2013-04-15 23:38:00,
2013-04-15 19:53:00,55.2,46.0,30.11,SSW,202,5.3,-999.0,71,-99.99,,,0.00,Acu-Link.com,2013-04-15 23:53:00,
2013-04-15 20:08:00,54.9,46.0,30.11,NE,45,2.7,-999.0,72,-99.99,,,0.00,Acu-Link.com,2013-04-16 00:08:00,
2013-04-15 20:23:00,54.7,45.9,30.12,West,270,3.7,-999.0,72,-99.99,,,0.00,Acu-Link.com,2013-04-16 00:23:00,
2013-04-15 20:39:00,54.5,46.0,30.12,SE,135,6.8,-999.0,73,-99.99,,,0.00,Acu-Link.com,2013-04-16 00:39:00,
2013-04-15 20:54:00,54.5,46.4,30.12,WNW,292,2.2,-999.0,74,-99.99,,,0.00,Acu-Link.com,2013-04-16 00:54:00,
2013-04-15 21:09:00,54.3,46.5,30.13,SE,135,4.2,-999.0,75,-99.99,,,0.00,Acu-Link.com,2013-04-16 01:09:00,
2013-04-15 21:24:00,53.8,47.1,30.13,ESE,112,4.2,-999.0,78,-99.99,,,0.00,Acu-Link.com,2013-04-16 01:24:00,
2013-04-15 21:40:00,53.6,47.2,30.14,South,180,3.2,-999.0,79,-99.99,,,0.00,Acu-Link.com,2013-04-16 01:40:00,
2013-04-15 21:55:00,53.4,47.4,30.14,ESE,112,2.2,-999.0,80,-99.99,,,0.00,Acu-Link.com,2013-04-16 01:55:00,
2013-04-15 22:10:00,53.2,47.5,30.14,SSE,157,1.1,-999.0,81,-99.99,,,0.00,Acu-Link.com,2013-04-16 02:10:00,
2013-04-15 22:25:00,53.1,48.1,30.15,South,180,4.7,-999.0,83,-99.99,,,0.00,Acu-Link.com,2013-04-16 02:25:00,
2013-04-15 22:40:00,53.1,48.4,30.15,ESE,112,5.3,-999.0,84,-99.99,,,0.00,Acu-Link.com,2013-04-16 02:40:00,
2013-04-15 22:56:00,53.1,48.7,30.15,NNW,337,4.7,-999.0,85,-99.99,,,0.00,Acu-Link.com,2013-04-16 02:56:00,
2013-04-15 23:41:00,52.5,49.0,30.14,SSW,202,5.3,-999.0,88,-99.99,,,0.00,Acu-Link.com,2013-04-16 03:41:00,
2013-04-15 23:56:00,52.3,49.2,30.15,South,180,5.3,-999.0,89,-99.99,,,0.00,Acu-Link.com,2013-04-16 03:56:00,